User: anonymous
Location: Unspecified
(0.0000°N, 0.0000°E)
Time: 08:38:50
(UTC+02:00)
Language:

Cosmos 540 Rocket - Orbit

View from above orbital plane
View from above orbital plane
View from above satellite
View from above satellite

Ground track
Ground track

The orbit data is extracted from the following two-line orbital elements,

1 06324U 72104B   14209.32164080  .00000131  00000-0  47191-4 0  3095
2 06324 074.0759 260.3759 0010415 308.9588 101.9389 14.42945037183409
Epoch (UTC): 28 July 2014 07:43:09
Eccentricity: 0.0010415
inclination: 74.0759°
perigee height: 741 km
apogee height: 756 km
right ascension of ascending node: 260.3759°
argument of perigee: 308.9588°
revolutions per day: 14.42945037
mean anomaly at epoch: 101.9389°
orbit number at epoch: 18340

The dashed part of the orbit path shows where the satellite is in the earth's shadow,  

DLR